| time (UTC) | temp F | wind direction | speed MPH | gust MPH | rain 1hr in | rain 24hr in | rain mn in | humidity % | barometer mb |
| 20260508111840 | 49 | 142 | 1.0 | 4.0 | 0.00 | 0.00 | 0.00 | 68 | 1014.6 |
| 20260508110840 | 49 | 148 | 0.0 | 3.0 | 0.00 | 0.00 | 0.00 | 70 | 1014.5 |
| 20260508105904 | 48 | 169 | 1.0 | 4.0 | 0.00 | 0.00 | 0.00 | 71 | 1014.4 |
| 20260508104833 | 47 | 168 | 1.0 | 4.0 | 0.00 | 0.00 | 0.00 | 72 | 1014.4 |
| 20260508103825 | 47 | 145 | 1.0 | 3.0 | 0.00 | 0.00 | 0.00 | 73 | 1014.3 |
| 20260508102810 | 47 | 121 | 1.0 | 3.0 | 0.00 | 0.00 | 0.00 | 73 | 1014.4 |
| 20260508101740 | 48 | 113 | 1.0 | 3.0 | 0.00 | 0.00 | 0.00 | 72 | 1014.3 |
| 20260508100723 | 48 | 106 | 1.0 | 4.0 | 0.00 | 0.00 | 0.00 | 70 | 1014.2 |
| 20260508095746 | 48 | 129 | 1.0 | 4.0 | 0.00 | 0.00 | 0.00 | 69 | 1014.2 |
| 20260508094758 | 49 | 139 | 1.0 | 4.0 | 0.00 | 0.00 | 0.00 | 68 | 1014.1 |
| 20260508093741 | 49 | 135 | 1.0 | 4.0 | 0.00 | 0.00 | 0.00 | 68 | 1014.2 |
| 20260508092756 | 49 | 162 | 0.0 | 3.0 | 0.00 | 0.00 | 0.00 | 68 | 1014.2 |
| 20260508084444 | 50 | 150 | 1.0 | 3.0 | 0.00 | 0.00 | 0.00 | 65 | 1014.2 |
| 20260508083416 | 50 | 129 | 1.0 | 3.0 | 0.00 | 0.00 | 0.00 | 65 | 1014.2 |
| 20260508082420 | 50 | 262 | 0.0 | 3.0 | 0.00 | 0.00 | 0.00 | 65 | 1014.2 |
| 20260508081430 | 50 | 155 | 0.0 | 2.0 | 0.00 | 0.00 | 0.00 | 65 | 1014.2 |
| 20260508080410 | 50 | 173 | 0.0 | 3.0 | 0.00 | 0.00 | 0.00 | 65 | 1014.2 |
| 20260508075403 | 50 | 113 | 0.0 | 2.0 | 0.00 | 0.00 | 0.00 | 64 | 1014.1 |
| 20260508074330 | 50 | 214 | 1.0 | 2.0 | 0.00 | 0.00 | 0.00 | 64 | 1014.3 |
| 20260508073330 | 50 | 155 | 1.0 | 3.0 | 0.00 | 0.00 | 0.00 | 64 | 1014.4 |
| 20260508072259 | 49 | 230 | 1.0 | 3.0 | 0.00 | 0.00 | 0.00 | 63 | 1014.5 |
| 20260508071312 | 49 | 226 | 0.0 | 2.0 | 0.00 | 0.00 | 0.00 | 64 | 1014.5 |
| 20260508070252 | 49 | 188 | 0.0 | 3.0 | 0.00 | 0.00 | 0.00 | 65 | 1014.5 |
| 20260508065243 | 49 | 256 | 0.0 | 3.0 | 0.00 | 0.00 | 0.00 | 65 | 1014.5 |
| 20260508063130 | 49 | 160 | 1.0 | 4.0 | 0.00 | 0.00 | 0.00 | 64 | 1014.6 |
| 20260508062127 | 50 | 229 | 1.0 | 4.0 | 0.00 | 0.00 | 0.00 | 63 | 1014.7 |
| 20260508061150 | 50 | 196 | 2.0 | 4.0 | 0.00 | 0.00 | 0.00 | 63 | 1014.8 |
| 20260508054953 | 50 | 175 | 1.0 | 4.0 | 0.00 | 0.00 | 0.00 | 61 | 1015.2 |
| 20260508054016 | 51 | 129 | 1.0 | 4.0 | 0.00 | 0.00 | 0.00 | 61 | 1015.2 |
| 20260508053014 | 51 | 174 | 1.0 | 3.0 | 0.00 | 0.00 | 0.00 | 60 | 1015.2 |
| 20260508052007 | 51 | 224 | 0.0 | 3.0 | 0.00 | 0.00 | 0.00 | 60 | 1015.3 |
| 20260508050941 | 51 | 272 | 0.0 | 1.0 | 0.00 | 0.00 | 0.00 | 59 | 1015.2 |
| 20260508044815 | 52 | 214 | 1.0 | 6.0 | 0.00 | 0.00 | 0.00 | 58 | 1015.1 |
| 20260508042645 | 53 | 276 | 1.0 | 4.0 | 0.00 | 0.00 | 0.00 | 56 | 1015.3 |
| 20260508041611 | 53 | 142 | 1.0 | 4.0 | 0.00 | 0.00 | 0.00 | 56 | 1015.3 |
| 20260508040541 | 53 | 212 | 1.0 | 4.0 | 0.00 | 0.00 | 0.00 | 56 | 1015.3 |
| 20260508035519 | 53 | 263 | 0.0 | 3.0 | 0.00 | 0.00 | 0.00 | 56 | 1015.2 |
| 20260508034452 | 53 | 224 | 1.0 | 4.0 | 0.00 | 0.00 | 0.00 | 56 | 1015.3 |
| 20260508033433 | 53 | 235 | 0.0 | 3.0 | 0.00 | 0.00 | 0.00 | 55 | 1015.3 |
| 20260508032436 | 53 | 177 | 1.0 | 3.0 | 0.00 | 0.00 | 0.00 | 54 | 1015.2 |
| 20260508031433 | 53 | 239 | 2.0 | 4.0 | 0.00 | 0.00 | 0.00 | 54 | 1015.3 |
| 20260508030456 | 54 | 234 | 1.0 | 5.0 | 0.00 | 0.00 | 0.00 | 53 | 1015.4 |
| 20260508025429 | 54 | 235 | 1.0 | 6.0 | 0.00 | 0.00 | 0.00 | 53 | 1015.0 |
| 20260508024431 | 54 | 228 | 3.0 | 6.0 | 0.00 | 0.00 | 0.00 | 52 | 1015.1 |
| 20260508023412 | 54 | 215 | 3.0 | 5.0 | 0.00 | 0.00 | 0.00 | 51 | 1015.0 |
| 20260508022431 | 55 | 225 | 3.0 | 4.0 | 0.00 | 0.00 | 0.00 | 50 | 1014.8 |
| 20260508021445 | 55 | 235 | 2.0 | 4.0 | 0.00 | 0.00 | 0.00 | 49 | 1014.7 |
| 20260508015258 | 56 | 238 | 3.0 | 4.0 | 0.00 | 0.00 | 0.00 | 46 | 1014.5 |
| 20260508014310 | 56 | 225 | 3.0 | 4.0 | 0.00 | 0.00 | 0.00 | 46 | 1014.7 |
| 20260508013313 | 57 | 232 | 2.0 | 4.0 | 0.00 | 0.00 | 0.00 | 45 | 1014.6 |
| 20260508010023 | 58 | 229 | 1.0 | 3.0 | 0.00 | 0.00 | 0.00 | 43 | 1014.4 |
| 20260508004951 | 58 | 243 | 0.0 | 3.0 | 0.00 | 0.00 | 0.00 | 43 | 1014.5 |
| 20260508004004 | 59 | 240 | 1.0 | 3.0 | 0.00 | 0.00 | 0.00 | 41 | 1014.5 |
| 20260508002941 | 59 | 239 | 0.0 | 3.0 | 0.00 | 0.00 | 0.00 | 39 | 1014.4 |
| 20260508001950 | 60 | 236 | 0.0 | 8.0 | 0.00 | 0.00 | 0.00 | 39 | 1014.3 |
| 20260508000925 | 60 | 287 | 1.0 | 8.0 | 0.00 | 0.00 | 0.00 | 40 | 1014.2 |
| 20260507233700 | 64 | 264 | 1.0 | 8.0 | 0.00 | 0.00 | 0.00 | 32 | 1013.9 |
| 20260507232718 | 64 | 261 | 3.0 | 9.0 | 0.00 | 0.00 | 0.00 | 35 | 1013.9 |
| 20260507231646 | 65 | 290 | 2.0 | 9.0 | 0.00 | 0.00 | 0.00 | 33 | 1014.0 |
| 20260507230703 | 66 | 275 | 0.0 | 2.0 | 0.00 | 0.00 | 0.00 | 32 | 1013.9 |
| 20260507225724 | 65 | 228 | 1.0 | 6.0 | 0.00 | 0.00 | 0.00 | 33 | 1014.0 |
| 20260507223619 | 65 | 255 | 1.0 | 6.0 | 0.00 | 0.00 | 0.00 | 32 | 1014.1 |
| 20260507222620 | 65 | 278 | 2.0 | 6.0 | 0.00 | 0.00 | 0.00 | 33 | 1014.1 |
| 20260507221643 | 65 | 231 | 1.0 | 6.0 | 0.00 | 0.00 | 0.00 | 32 | 1014.0 |
| 20260507220633 | 65 | 221 | 1.0 | 6.0 | 0.00 | 0.00 | 0.00 | 30 | 1013.9 |
| 20260507215617 | 64 | 240 | 2.0 | 10.0 | 0.00 | 0.00 | 0.00 | 34 | 1014.1 |
| 20260507214639 | 65 | 281 | 3.0 | 10.0 | 0.00 | 0.00 | 0.00 | 31 | 1014.0 |
| 20260507213623 | 65 | 241 | 3.0 | 9.0 | 0.00 | 0.00 | 0.00 | 30 | 1013.9 |
| 20260507212550 | 65 | 238 | 3.0 | 9.0 | 0.00 | 0.00 | 0.00 | 31 | 1013.8 |
| 20260507211539 | 64 | 298 | 2.0 | 9.0 | 0.00 | 0.00 | 0.00 | 30 | 1014.1 |
| 20260507210527 | 64 | 210 | 1.0 | 6.0 | 0.00 | 0.00 | 0.00 | 31 | 1014.4 |
| 20260507204430 | 64 | 233 | 0.0 | 4.0 | 0.00 | 0.00 | 0.00 | 34 | 1014.4 |
| 20260507203421 | 65 | 333 | 1.0 | 3.0 | 0.00 | 0.00 | 0.00 | 31 | 1014.4 |
| 20260507202356 | 66 | 266 | 1.0 | 9.0 | 0.00 | 0.00 | 0.00 | 31 | 1014.5 |
| 20260507201332 | 65 | 359 | 2.0 | 10.0 | 0.00 | 0.00 | 0.00 | 31 | 1014.6 |
| 20260507200331 | 64 | 113 | 1.0 | 10.0 | 0.00 | 0.00 | 0.00 | 34 | 1014.7 |
| 20260507195334 | 63 | 330 | 2.0 | 6.0 | 0.00 | 0.00 | 0.00 | 33 | 1014.9 |
| 20260507193140 | 63 | 213 | 3.0 | 9.0 | 0.00 | 0.00 | 0.00 | 31 | 1015.1 |
| 20260507192128 | 62 | 67 | 3.0 | 9.0 | 0.00 | 0.00 | 0.00 | 30 | 1015.2 |
| 20260507190038 | 63 | 60 | 1.0 | 9.0 | 0.00 | 0.00 | 0.00 | 32 | 1015.3 |
| 20260507185007 | 63 | 4 | 2.0 | 8.0 | 0.00 | 0.00 | 0.00 | 32 | 1015.4 |
| 20260507183954 | 61 | 314 | 4.0 | 11.0 | 0.00 | 0.00 | 0.00 | 32 | 1015.6 |
| 20260507183011 | 62 | 58 | 3.0 | 13.0 | 0.00 | 0.00 | 0.00 | 38 | 1015.5 |
| 20260507182035 | 61 | 356 | 4.0 | 13.0 | 0.00 | 0.00 | 0.00 | 33 | 1015.5 |
| 20260507181040 | 61 | 323 | 3.0 | 12.0 | 0.00 | 0.00 | 0.00 | 35 | 1015.6 |
| 20260507175127 | 60 | 295 | 4.0 | 9.0 | 0.00 | 0.00 | 0.00 | 37 | 1016.1 |
| 20260507174054 | 60 | 312 | 3.0 | 9.0 | 0.00 | 0.00 | 0.00 | 34 | 1015.9 |
| 20260507173029 | 61 | 272 | 1.0 | 11.0 | 0.00 | 0.00 | 0.00 | 36 | 1016.0 |
| 20260507172051 | 60 | 25 | 4.0 | 11.0 | 0.00 | 0.00 | 0.00 | 36 | 1016.2 |
| 20260507165950 | 59 | 298 | 3.0 | 11.0 | 0.00 | 0.00 | 0.00 | 34 | 1016.5 |
| 20260507164917 | 59 | 30 | 4.0 | 11.0 | 0.00 | 0.00 | 0.00 | 36 | 1016.7 |
| 20260507163922 | 59 | 333 | 3.0 | 9.0 | 0.00 | 0.00 | 0.00 | 37 | 1016.7 |
| 20260507162931 | 59 | 23 | 4.0 | 13.0 | 0.00 | 0.00 | 0.00 | 38 | 1016.7 |
| 20260507161928 | 58 | 281 | 4.0 | 13.0 | 0.00 | 0.00 | 0.00 | 35 | 1016.7 |
| 20260507155745 | 58 | 282 | 2.0 | 7.0 | 0.00 | 0.00 | 0.00 | 38 | 1016.9 |
| 20260507154803 | 58 | 226 | 3.0 | 10.0 | 0.00 | 0.00 | 0.00 | 38 | 1016.9 |
| 20260507153747 | 58 | 337 | 3.0 | 10.0 | 0.00 | 0.00 | 0.00 | 38 | 1017.1 |
| 20260507151617 | 56 | 46 | 4.0 | 11.0 | 0.00 | 0.00 | 0.00 | 38 | 1017.0 |
| 20260507150631 | 57 | 35 | 3.0 | 11.0 | 0.00 | 0.00 | 0.00 | 37 | 1017.0 |
| 20260507145643 | 56 | 332 | 3.0 | 11.0 | 0.00 | 0.00 | 0.00 | 39 | 1016.9 |
| 20260507143452 | 56 | 297 | 1.0 | 9.0 | 0.00 | 0.00 | 0.00 | 43 | 1016.9 |
| 20260507142423 | 55 | 219 | 2.0 | 8.0 | 0.00 | 0.00 | 0.00 | 43 | 1017.0 |
| 20260507141424 | 55 | 270 | 1.0 | 8.0 | 0.00 | 0.00 | 0.00 | 43 | 1016.9 |
| 20260507135337 | 54 | 293 | 1.0 | 4.0 | 0.00 | 0.00 | 0.00 | 46 | 1016.9 |
| 20260507132111 | 56 | 255 | 0.0 | 0.0 | 0.00 | 0.00 | 0.00 | 57 | 1016.8 |
| 20260507131122 | 54 | 255 | 0.0 | 0.0 | 0.00 | 0.00 | 0.00 | 59 | 1016.9 |
| 20260507125055 | 52 | 276 | 0.0 | 0.0 | 0.00 | 0.00 | 0.00 | 63 | 1016.9 |
| 20260507124110 | 50 | 304 | 0.0 | 0.0 | 0.00 | 0.00 | 0.00 | 69 | 1016.8 |
| 20260507123134 | 49 | 304 | 0.0 | 0.0 | 0.00 | 0.00 | 0.00 | 68 | 1016.8 |
| 20260507122153 | 49 | 304 | 0.0 | 0.0 | 0.00 | 0.00 | 0.00 | 67 | 1016.7 |
| 20260507121129 | 47 | 304 | 0.0 | 0.0 | 0.00 | 0.00 | 0.00 | 74 | 1016.7 |
| 20260507120119 | 46 | 304 | 0.0 | 0.0 | 0.00 | 0.00 | 0.00 | 75 | 1016.6 |
| 20260507113930 | 43 | 304 | 0.0 | 0.0 | 0.00 | 0.00 | 0.00 | 81 | 1016.5 |